Location: Ackerson Creek
(37.8210°N, 119.8757°W)
Time: 16:32:45
(UTC+00:00)

Cosmos 1048 Rocket - Pass Details

Date: 13 April 2024
Orbit: 742 x 788 km, 74.0° (Epoch: 23 May)

Event Time Altitude Azimuth Distance (km) Brightness Sun altitude
Rises 12:37:28 0° 199° (SSW) 3,262 6.9 -10.1°
Reaches altitude 10° 12:39:51 10° 201° (SSW) 2,334 6.1 -9.6°
Maximum altitude 12:45:10 80° 288° (WNW) 795 4.0 -8.6°
Drops below altitude 10° 12:50:28 10° 16° (NNE) 2,325 7.0 -7.6°
Sets 12:52:51 0° 18° (NNE) 3,248 7.8 -7.2°
